Location: Los Gatos B&B
(42.6926°N, 77.0646°W)
Time: 05:15:55
(UTC-05:00)

Cosmos 2263 Rocket - Visible Passes

Search period start: 04 December 2016 00:00
Search period end: 14 December 2016 00:00
Orbit: 823 x 850 km, 71.0° (Epoch: 03 December)

Date Brightness Start Highest point End Pass type
(mag) Time Alt. Az. Time Alt. Az. Time Alt. Az.
04 Dec 3.8 17:17:48 10° WSW 17:22:44 31° NW 17:27:45 10° N visible
05 Dec 3.7 17:00:57 10° WSW 17:06:00 33° NW 17:11:06 10° N visible
11 Dec 4.7 17:10:04 10° NW 17:10:54 10° NW 17:11:45 10° NNW visible
